Home   Weather   Hayward   Past weeks

Flag for USA Past Weather in Hayward, California, USA — Yesterday and Last 2 Weeks

Now
70 °F

Sunny.


Feels Like: 77 °F
Forecast: 54 / 83 °F
Wind: 15 mph from Northwest

Location: Hayward Air Terminal

Current Time: Apr 30, 2017 at 5:58:35 pm

Latest Report: Apr 30, 2017 at 4:54 pm


Visibility: 10 mi

Pressure: 30.11 "Hg

Humidity: 51%

Dew Point: 51 °F

Location of HaywardLocation

Past Weather in Hayward — Graph

°F

Hayward Temperature Yesterday

Maximum temperature yesterday: 79 °F (at 12:54 pm)
Minimum temperature yesterday: 54 °F (at 5:54 am)
Average temperature yesterday: 66 °F

High & Low Weather Summary for the Past Weeks

 TemperatureHumidityPressure
High79 °F (Apr 29, 12:54 pm)87% (Apr 18, 2:54 am)30.34 "Hg (Apr 18, 2:54 am)
Low50 °F (Apr 22, 5:54 am)16% (Apr 29, 11:54 am)29.93 "Hg (Apr 16, 3:54 am)
Average60 °F63%30.10 "Hg
* Reported Apr 15 3:54 pm — Apr 30 3:54 pm, Hayward, Weather by CustomWeather, © 2017

Note: Actual official high and low records may vary slightly from our data, if they occured in-between our weather recording intervals... More about our weather records

Advertising

Hayward Weather History for the Previous 24 Hours

Scroll right to see more
 ConditionsComfort  
Time TempWeatherWind HumidityBarometerVisibility
3:54 pm
Sun, Apr 30
74 °FSunny.14 mph41%30.12 "Hg10 mi
2:54 pm78 °FSunny.14 mph35%30.13 "Hg10 mi
1:54 pm77 °FSunny.12 mph35%30.15 "Hg10 mi
12:54 pm74 °FSunny.10 mph37%30.15 "Hg10 mi
11:54 am71 °FSunny.7 mph41%30.17 "Hg10 mi
10:54 am68 °FSunny.7 mph49%30.18 "Hg10 mi
9:54 am66 °FSunny.6 mph54%30.17 "Hg10 mi
8:54 am62 °FSunny.N/A58%30.17 "Hg10 mi
7:54 am59 °FSunny.3 mph62%30.17 "Hg10 mi
6:54 am54 °FSunny.N/A69%30.16 "Hg10 mi
5:54 am52 °FClear.5 mph72%30.14 "Hg10 mi
4:54 am52 °FClear.3 mph72%30.14 "Hg10 mi
3:54 am54 °FClear.3 mph72%30.14 "Hg10 mi
2:54 am55 °FClear.3 mph69%30.14 "Hg10 mi
1:54 am56 °FClear.5 mph72%30.15 "Hg10 mi
12:54 am58 °FClear.No wind67%30.15 "Hg10 mi
11:54 pm
Sat, Apr 29
57 °FClear.3 mph69%30.15 "Hg10 mi
10:54 pm58 °FClear.3 mph67%30.15 "Hg10 mi
9:54 pm60 °FClear.5 mph65%30.14 "Hg10 mi
8:54 pm63 °FClear.5 mph58%30.13 "Hg10 mi
7:54 pm64 °FSunny.9 mph54%30.11 "Hg10 mi
6:54 pm68 °FSunny.9 mph49%30.10 "Hg10 mi
5:54 pm72 °FSunny.10 mph38%30.10 "Hg10 mi
Weather by CustomWeather, © 2017

See weather overviewHow to use our weather pages